| time (UTC) | temp C | wind direction | speed KPH | gust KPH | rain 1hr cm | rain 24hr cm | rain mn cm | humidity % | barometer mb |
| 20260506185004 | 12 | 63 | 4.8 | 12.9 | 0.00 | 0.00 | 0.00 | 72 | 1011.5 |
| 20260506184504 | 12 | 48 | 6.4 | 16.1 | 0.00 | 0.00 | 0.00 | 71 | 1011.4 |
| 20260506183504 | 13 | 52 | 8.0 | 14.5 | 0.00 | 0.00 | 0.00 | 69 | 1011.4 |
| 20260506183006 | 13 | 49 | 8.0 | 16.1 | 0.00 | 0.00 | 0.00 | 69 | 1011.3 |
| 20260506182004 | 13 | 44 | 8.0 | 16.1 | 0.00 | 0.00 | 0.00 | 68 | 1011.1 |
| 20260506181504 | 13 | 61 | 8.0 | 16.1 | 0.00 | 0.00 | 0.00 | 68 | 1011.0 |
| 20260506181003 | 13 | 65 | 9.7 | 16.1 | 0.00 | 0.00 | 0.00 | 67 | 1011.0 |
| 20260506180504 | 13 | 52 | 3.2 | 11.3 | 0.00 | 0.00 | 0.00 | 68 | 1010.9 |
| 20260506180005 | 13 | 43 | 4.8 | 12.9 | 0.00 | 0.00 | 0.00 | 67 | 1010.8 |
| 20260506175504 | 13 | 52 | 4.8 | 14.5 | 0.00 | 0.00 | 0.00 | 67 | 1010.7 |
| 20260506175004 | 13 | 68 | 4.8 | 11.3 | 0.00 | 0.00 | 0.00 | 67 | 1010.7 |
| 20260506174504 | 13 | 48 | 4.8 | 12.9 | 0.00 | 0.00 | 0.00 | 66 | 1010.6 |
| 20260506173505 | 14 | 45 | 6.4 | 16.1 | 0.00 | 0.00 | 0.00 | 65 | 1010.5 |
| 20260506173004 | 14 | 60 | 4.8 | 12.9 | 0.00 | 0.00 | 0.00 | 65 | 1010.5 |
| 20260506172504 | 14 | 48 | 6.4 | 12.9 | 0.00 | 0.00 | 0.00 | 65 | 1010.4 |
| 20260506172004 | 14 | 54 | 4.8 | 12.9 | 0.00 | 0.00 | 0.00 | 65 | 1010.4 |
| 20260506170004 | 14 | 38 | 4.8 | 11.3 | 0.00 | 0.00 | 0.00 | 66 | 1010.3 |
| 20260506165504 | 14 | 53 | 4.8 | 12.9 | 0.00 | 0.00 | 0.00 | 66 | 1010.2 |
| 20260506165004 | 14 | 61 | 8.0 | 12.9 | 0.00 | 0.00 | 0.00 | 67 | 1010.1 |
| 20260506163504 | 14 | 29 | 3.2 | 12.9 | 0.00 | 0.00 | 0.00 | 69 | 1010.0 |
| 20260506162503 | 15 | 346 | 6.4 | 12.9 | 0.00 | 0.00 | 0.00 | 70 | 1010.0 |
| 20260506162004 | 15 | 351 | 6.4 | 12.9 | 0.00 | 0.00 | 0.00 | 69 | 1010.0 |
| 20260506161504 | 15 | 29 | 6.4 | 12.9 | 0.00 | 0.00 | 0.00 | 68 | 1009.9 |
| 20260506161004 | 15 | 11 | 4.8 | 11.3 | 0.00 | 0.00 | 0.00 | 68 | 1009.9 |
| 20260506160003 | 16 | 324 | 9.7 | 14.5 | 0.00 | 0.00 | 0.00 | 66 | 1009.9 |
| 20260506155504 | 15 | 16 | 9.7 | 14.5 | 0.00 | 0.00 | 0.00 | 66 | 1010.0 |
| 20260506154504 | 15 | 4 | 8.0 | 16.1 | 0.00 | 0.00 | 0.00 | 66 | 1010.0 |
| 20260506153504 | 15 | 326 | 6.4 | 12.9 | 0.00 | 0.00 | 0.00 | 69 | 1010.0 |
| 20260506153005 | 15 | 349 | 6.4 | 14.5 | 0.00 | 0.00 | 0.00 | 69 | 1010.0 |
| 20260506152504 | 14 | 329 | 4.8 | 12.9 | 0.00 | 0.00 | 0.00 | 70 | 1010.1 |
| 20260506140004 | 14 | 354 | 6.4 | 12.9 | 0.00 | 0.00 | 0.00 | 80 | 1009.9 |
| 20260506135504 | 14 | 321 | 8.0 | 16.1 | 0.00 | 0.00 | 0.00 | 81 | 1009.9 |
| 20260506135004 | 14 | 327 | 9.7 | 16.1 | 0.00 | 0.00 | 0.00 | 80 | 1009.9 |
| 20260506132003 | 14 | 326 | 8.0 | 14.5 | 0.00 | 0.00 | 0.00 | 73 | 1009.9 |
| 20260506131504 | 15 | 344 | 11.3 | 22.5 | 0.00 | 0.00 | 0.00 | 72 | 1009.8 |
| 20260506131004 | 15 | 321 | 9.7 | 19.3 | 0.00 | 0.00 | 0.00 | 71 | 1009.8 |
| 20260506130504 | 15 | 28 | 9.7 | 19.3 | 0.00 | 0.00 | 0.00 | 71 | 1009.8 |
| 20260506125503 | 15 | 33 | 4.8 | 16.1 | 0.00 | 0.00 | 0.00 | 71 | 1009.7 |
| 20260506125004 | 15 | 8 | 8.0 | 16.1 | 0.00 | 0.00 | 0.00 | 71 | 1009.7 |
| 20260506124504 | 15 | 321 | 8.0 | 19.3 | 0.00 | 0.00 | 0.00 | 72 | 1009.7 |
| 20260506124004 | 15 | 22 | 6.4 | 20.9 | 0.00 | 0.00 | 0.00 | 72 | 1009.7 |
| 20260506123504 | 15 | 3 | 6.4 | 12.9 | 0.00 | 0.00 | 0.00 | 73 | 1009.7 |
| 20260506123004 | 15 | 322 | 8.0 | 14.5 | 0.00 | 0.00 | 0.00 | 73 | 1009.6 |
| 20260506122504 | 15 | 323 | 8.0 | 19.3 | 0.00 | 0.00 | 0.00 | 74 | 1009.6 |
| 20260506122004 | 15 | 332 | 6.4 | 19.3 | 0.00 | 0.00 | 0.00 | 74 | 1009.6 |
| 20260506121004 | 15 | 344 | 6.4 | 16.1 | 0.00 | 0.00 | 0.00 | 75 | 1009.6 |
| 20260506120504 | 15 | 14 | 8.0 | 12.9 | 0.00 | 0.00 | 0.00 | 74 | 1009.6 |
| 20260506120004 | 15 | 319 | 9.7 | 19.3 | 0.00 | 0.00 | 0.00 | 74 | 1009.5 |
| 20260506115504 | 15 | 331 | 8.0 | 14.5 | 0.00 | 0.00 | 0.00 | 76 | 1009.5 |
| 20260506114504 | 15 | 324 | 8.0 | 14.5 | 0.00 | 0.00 | 0.00 | 75 | 1009.6 |
| 20260506114003 | 15 | 10 | 9.7 | 16.1 | 0.00 | 0.00 | 0.00 | 75 | 1009.5 |
| 20260506113503 | 15 | 328 | 9.7 | 19.3 | 0.00 | 0.00 | 0.00 | 73 | 1009.6 |
| 20260506113004 | 15 | 337 | 6.4 | 12.9 | 0.00 | 0.00 | 0.00 | 71 | 1009.5 |
| 20260506112503 | 16 | 320 | 9.7 | 16.1 | 0.00 | 0.00 | 0.00 | 72 | 1009.4 |
| 20260506112004 | 15 | 20 | 3.2 | 14.5 | 0.00 | 0.00 | 0.00 | 72 | 1009.4 |
| 20260506111503 | 15 | 36 | 6.4 | 14.5 | 0.00 | 0.00 | 0.00 | 74 | 1009.5 |
| 20260506111003 | 15 | 326 | 9.7 | 19.3 | 0.00 | 0.00 | 0.00 | 73 | 1009.6 |
| 20260506110004 | 15 | 346 | 9.7 | 22.5 | 0.00 | 0.00 | 0.00 | 76 | 1009.6 |
| 20260506105503 | 15 | 348 | 8.0 | 16.1 | 0.00 | 0.00 | 0.00 | 77 | 1009.6 |
| 20260506105004 | 15 | 35 | 6.4 | 19.3 | 0.00 | 0.00 | 0.00 | 78 | 1009.7 |
| 20260506104503 | 15 | 328 | 9.7 | 19.3 | 0.00 | 0.00 | 0.00 | 78 | 1009.6 |
| 20260506104004 | 15 | 31 | 6.4 | 14.5 | 0.00 | 0.00 | 0.00 | 80 | 1009.7 |
| 20260506103503 | 14 | 24 | 8.0 | 12.9 | 0.00 | 0.00 | 0.00 | 80 | 1009.7 |
| 20260506103004 | 14 | 334 | 9.7 | 16.1 | 0.00 | 0.00 | 0.00 | 81 | 1009.7 |
| 20260506102504 | 14 | 333 | 11.3 | 19.3 | 0.00 | 0.00 | 0.00 | 81 | 1009.6 |
| 20260506102004 | 14 | 22 | 8.0 | 16.1 | 0.00 | 0.00 | 0.00 | 82 | 1009.6 |
| 20260506101503 | 13 | 20 | 8.0 | 16.1 | 0.00 | 0.00 | 0.00 | 82 | 1009.6 |
| 20260506101004 | 13 | 0 | 4.8 | 14.5 | 0.00 | 0.00 | 0.00 | 83 | 1009.6 |
| 20260506100504 | 13 | 324 | 6.4 | 16.1 | 0.00 | 0.00 | 0.00 | 83 | 1009.6 |
| 20260506100004 | 13 | 337 | 9.7 | 19.3 | 0.00 | 0.00 | 0.00 | 84 | 1009.5 |
| 20260506095503 | 13 | 336 | 8.0 | 19.3 | 0.00 | 0.00 | 0.00 | 83 | 1009.5 |
| 20260506095004 | 13 | 321 | 9.7 | 20.9 | 0.00 | 0.00 | 0.00 | 84 | 1009.5 |
| 20260506094504 | 13 | 26 | 9.7 | 19.3 | 0.00 | 0.00 | 0.00 | 84 | 1009.4 |
| 20260506094004 | 13 | 335 | 8.0 | 16.1 | 0.00 | 0.00 | 0.00 | 86 | 1009.5 |
| 20260506092504 | 12 | 357 | 8.0 | 19.3 | 0.00 | 0.00 | 0.00 | 89 | 1009.5 |
| 20260506092004 | 12 | 9 | 9.7 | 19.3 | 0.00 | 0.00 | 0.00 | 89 | 1009.5 |
| 20260506091503 | 12 | 349 | 9.7 | 19.3 | 0.00 | 0.00 | 0.00 | 91 | 1009.5 |
| 20260506090504 | 12 | 334 | 9.7 | 25.7 | 0.00 | 0.00 | 0.00 | 92 | 1009.4 |
| 20260506090004 | 12 | 323 | 6.4 | 16.1 | 0.00 | 0.00 | 0.00 | 93 | 1009.3 |
| 20260506085504 | 11 | 24 | 8.0 | 16.1 | 0.00 | 0.00 | 0.00 | 93 | 1009.3 |
| 20260506085004 | 11 | 21 | 8.0 | 12.9 | 0.00 | 0.00 | 0.00 | 94 | 1009.3 |
| 20260506084505 | 11 | 342 | 9.7 | 19.3 | 0.00 | 0.00 | 0.00 | 94 | 1009.3 |
| 20260506084004 | 11 | 328 | 9.7 | 14.5 | 0.00 | 0.00 | 0.00 | 93 | 1009.3 |
| 20260506083503 | 11 | 18 | 3.2 | 11.3 | 0.00 | 0.00 | 0.00 | 93 | 1009.2 |
| 20260506083005 | 11 | 326 | 8.0 | 14.5 | 0.00 | 0.00 | 0.00 | 93 | 1009.2 |
| 20260506082504 | 10 | 23 | 6.4 | 16.1 | 0.00 | 0.00 | 0.00 | 92 | 1009.2 |
| 20260506082004 | 10 | 324 | 8.0 | 16.1 | 0.00 | 0.00 | 0.00 | 92 | 1009.2 |
| 20260506081503 | 10 | 327 | 4.8 | 11.3 | 0.00 | 0.00 | 0.00 | 92 | 1009.2 |
| 20260506081003 | 10 | 328 | 3.2 | 4.8 | 0.00 | 0.00 | 0.00 | 92 | 1009.2 |
| 20260506080504 | 10 | 328 | 3.2 | 12.9 | 0.00 | 0.00 | 0.00 | 92 | 1009.2 |
| 20260506073504 | 10 | 333 | 4.8 | 9.7 | 0.00 | 0.00 | 0.00 | 92 | 1009.2 |
| 20260506072503 | 10 | 339 | 3.2 | 9.7 | 0.00 | 0.00 | 0.00 | 92 | 1009.2 |
| 20260506072003 | 10 | 7 | 1.6 | 11.3 | 0.00 | 0.00 | 0.00 | 92 | 1009.1 |
| 20260506071504 | 10 | 22 | 1.6 | 8.0 | 0.00 | 0.00 | 0.00 | 92 | 1009.1 |
| 20260506071004 | 10 | 22 | 3.2 | 8.0 | 0.00 | 0.00 | 0.00 | 93 | 1009.1 |
| 20260506062003 | 10 | 20 | 3.2 | 12.9 | 0.00 | 0.00 | 0.00 | 94 | 1008.9 |
| 20260506061503 | 10 | 5 | 8.0 | 16.1 | 0.00 | 0.00 | 0.00 | 94 | 1008.9 |
| 20260506061004 | 10 | 355 | 3.2 | 8.0 | 0.00 | 0.00 | 0.00 | 94 | 1008.8 |
| 20260506050504 | 10 | 337 | 8.0 | 12.9 | 0.00 | 0.00 | 0.00 | 91 | 1008.6 |
| 20260506045004 | 10 | 26 | 8.0 | 19.3 | 0.00 | 0.00 | 0.00 | 91 | 1008.7 |
| 20260506044504 | 10 | 324 | 9.7 | 16.1 | 0.00 | 0.00 | 0.00 | 91 | 1008.7 |
| 20260506044004 | 10 | 20 | 4.8 | 9.7 | 0.00 | 0.00 | 0.00 | 91 | 1008.5 |
| 20260506043504 | 10 | 12 | 4.8 | 9.7 | 0.00 | 0.00 | 0.00 | 91 | 1008.5 |
| 20260506042003 | 10 | 343 | 8.0 | 16.1 | 0.00 | 0.00 | 0.00 | 91 | 1008.5 |
| 20260506041504 | 10 | 345 | 8.0 | 12.9 | 0.00 | 0.00 | 0.00 | 92 | 1008.6 |
| 20260506041004 | 10 | 343 | 4.8 | 9.7 | 0.00 | 0.00 | 0.00 | 92 | 1008.6 |
| 20260506040504 | 10 | 29 | 4.8 | 11.3 | 0.00 | 0.00 | 0.00 | 92 | 1008.7 |
| 20260506040004 | 10 | 16 | 3.2 | 8.0 | 0.00 | 0.00 | 0.00 | 92 | 1008.7 |
| 20260506035004 | 10 | 355 | 4.8 | 11.3 | 0.00 | 0.00 | 0.00 | 92 | 1008.6 |
| 20260506034504 | 10 | 355 | 6.4 | 9.7 | 0.00 | 0.00 | 0.00 | 92 | 1008.7 |
| 20260506034004 | 10 | 5 | 4.8 | 9.7 | 0.00 | 0.00 | 0.00 | 92 | 1008.7 |
| 20260506033503 | 10 | 36 | 4.8 | 11.3 | 0.00 | 0.00 | 0.00 | 92 | 1008.7 |
| 20260506033005 | 10 | 0 | 4.8 | 11.3 | 0.00 | 0.00 | 0.00 | 91 | 1008.7 |
| 20260506032504 | 10 | 329 | 8.0 | 12.9 | 0.00 | 0.00 | 0.00 | 91 | 1008.7 |
| 20260506032004 | 10 | 336 | 4.8 | 12.9 | 0.00 | 0.00 | 0.00 | 91 | 1008.8 |
| 20260506031505 | 10 | 333 | 4.8 | 12.9 | 0.00 | 0.00 | 0.00 | 91 | 1008.8 |
| 20260506031004 | 10 | 332 | 3.2 | 11.3 | 0.00 | 0.00 | 0.00 | 91 | 1008.8 |
| 20260506030505 | 10 | 329 | 6.4 | 12.9 | 0.00 | 0.00 | 0.00 | 91 | 1008.8 |
| 20260506030004 | 10 | 335 | 4.8 | 11.3 | 0.00 | 0.00 | 0.00 | 91 | 1008.9 |
| 20260506025004 | 10 | 355 | 3.2 | 8.0 | 0.00 | 0.00 | 0.00 | 91 | 1008.9 |
| 20260506024503 | 10 | 0 | 6.4 | 11.3 | 0.00 | 0.00 | 0.00 | 91 | 1008.9 |
| 20260506024004 | 10 | 349 | 3.2 | 11.3 | 0.00 | 0.00 | 0.00 | 91 | 1008.9 |
| 20260506023504 | 10 | 6 | 4.8 | 11.3 | 0.00 | 0.00 | 0.00 | 91 | 1008.9 |
| 20260506023004 | 10 | 5 | 4.8 | 11.3 | 0.00 | 0.00 | 0.00 | 91 | 1009.0 |
| 20260506022504 | 10 | 341 | 4.8 | 11.3 | 0.00 | 0.00 | 0.00 | 91 | 1009.0 |
| 20260506022004 | 10 | 352 | 4.8 | 9.7 | 0.00 | 0.00 | 0.00 | 91 | 1009.1 |
| 20260506021504 | 10 | 355 | 4.8 | 11.3 | 0.00 | 0.00 | 0.00 | 90 | 1009.1 |
| 20260506021004 | 10 | 350 | 4.8 | 9.7 | 0.00 | 0.00 | 0.00 | 90 | 1009.1 |
| 20260506020503 | 10 | 345 | 6.4 | 11.3 | 0.00 | 0.00 | 0.00 | 90 | 1009.1 |
| 20260506020004 | 10 | 12 | 4.8 | 11.3 | 0.00 | 0.00 | 0.00 | 90 | 1009.1 |
| 20260506015504 | 10 | 329 | 6.4 | 12.9 | 0.00 | 0.00 | 0.00 | 90 | 1009.1 |
| 20260506015004 | 10 | 359 | 6.4 | 9.7 | 0.00 | 0.00 | 0.00 | 90 | 1009.2 |
| 20260506013504 | 10 | 338 | 4.8 | 12.9 | 0.00 | 0.00 | 0.00 | 90 | 1009.2 |
| 20260506013004 | 10 | 334 | 8.0 | 12.9 | 0.00 | 0.00 | 0.00 | 90 | 1009.2 |
| 20260506012504 | 10 | 5 | 4.8 | 9.7 | 0.00 | 0.00 | 0.00 | 89 | 1009.2 |
| 20260506011504 | 10 | 23 | 6.4 | 12.9 | 0.00 | 0.00 | 0.00 | 89 | 1009.2 |
| 20260506011003 | 10 | 35 | 6.4 | 11.3 | 0.00 | 0.00 | 0.00 | 89 | 1009.1 |
| 20260506010503 | 10 | 346 | 3.2 | 8.0 | 0.00 | 0.00 | 0.00 | 89 | 1009.2 |
| 20260506010004 | 10 | 343 | 4.8 | 11.3 | 0.00 | 0.00 | 0.00 | 89 | 1009.2 |
| 20260506005003 | 10 | 349 | 4.8 | 11.3 | 0.00 | 0.00 | 0.00 | 89 | 1009.3 |
| 20260506004504 | 10 | 0 | 3.2 | 9.7 | 0.00 | 0.00 | 0.00 | 88 | 1009.3 |
| 20260506004003 | 10 | 355 | 4.8 | 8.0 | 0.00 | 0.00 | 0.00 | 88 | 1009.3 |
| 20260506003504 | 10 | 5 | 4.8 | 11.3 | 0.00 | 0.00 | 0.00 | 88 | 1009.4 |
| 20260506003004 | 10 | 24 | 8.0 | 12.9 | 0.00 | 0.00 | 0.00 | 87 | 1009.5 |
| 20260506002004 | 10 | 347 | 6.4 | 11.3 | 0.00 | 0.00 | 0.00 | 88 | 1009.6 |
| 20260506001504 | 10 | 342 | 4.8 | 11.3 | 0.00 | 0.00 | 0.00 | 88 | 1009.6 |
| 20260506001004 | 10 | 26 | 3.2 | 11.3 | 0.00 | 0.00 | 0.00 | 88 | 1009.6 |
| 20260506000504 | 10 | 19 | 4.8 | 11.3 | 0.00 | 0.00 | 0.00 | 88 | 1009.6 |
| 20260505235504 | 10 | 352 | 4.8 | 14.5 | 0.00 | 0.00 | 0.00 | 88 | 1009.6 |
| 20260505235004 | 10 | 30 | 4.8 | 12.9 | 0.00 | 0.00 | 0.00 | 88 | 1009.6 |
| 20260505234505 | 10 | 20 | 6.4 | 14.5 | 0.00 | 0.00 | 0.00 | 88 | 1009.6 |
| 20260505234004 | 10 | 5 | 6.4 | 14.5 | 0.00 | 0.00 | 0.00 | 88 | 1009.7 |
| 20260505233003 | 10 | 39 | 8.0 | 14.5 | 0.00 | 0.00 | 0.00 | 88 | 1009.8 |
| 20260505232504 | 10 | 4 | 8.0 | 19.3 | 0.00 | 0.00 | 0.00 | 88 | 1009.8 |
| 20260505231004 | 10 | 22 | 6.4 | 19.3 | 0.00 | 0.00 | 0.00 | 88 | 1009.8 |
| 20260505230504 | 11 | 17 | 4.8 | 8.0 | 0.00 | 0.00 | 0.00 | 88 | 1009.8 |
| 20260505230004 | 11 | 15 | 4.8 | 12.9 | 0.00 | 0.00 | 0.00 | 88 | 1009.8 |
| 20260505225504 | 11 | 28 | 8.0 | 12.9 | 0.00 | 0.00 | 0.00 | 87 | 1009.8 |
| 20260505225004 | 11 | 39 | 4.8 | 11.3 | 0.00 | 0.00 | 0.00 | 87 | 1009.8 |
| 20260505224504 | 11 | 31 | 6.4 | 11.3 | 0.00 | 0.00 | 0.00 | 87 | 1010.0 |
| 20260505224004 | 11 | 34 | 8.0 | 16.1 | 0.00 | 0.00 | 0.00 | 86 | 1010.0 |
| 20260505223504 | 11 | 32 | 4.8 | 14.5 | 0.00 | 0.00 | 0.00 | 86 | 1010.0 |
| 20260505223005 | 11 | 52 | 8.0 | 12.9 | 0.00 | 0.00 | 0.00 | 86 | 1010.0 |
| 20260505222004 | 11 | 18 | 4.8 | 12.9 | 0.00 | 0.00 | 0.00 | 85 | 1010.0 |
| 20260505221004 | 11 | 28 | 4.8 | 14.5 | 0.00 | 0.00 | 0.00 | 85 | 1009.9 |
| 20260505220004 | 11 | 24 | 8.0 | 22.5 | 0.00 | 0.00 | 0.00 | 85 | 1010.0 |
| 20260505215504 | 11 | 8 | 9.7 | 22.5 | 0.00 | 0.00 | 0.00 | 85 | 1009.9 |
| 20260505215005 | 11 | 27 | 6.4 | 14.5 | 0.00 | 0.00 | 0.00 | 85 | 1010.0 |
| 20260505214504 | 11 | 31 | 8.0 | 19.3 | 0.00 | 0.00 | 0.00 | 85 | 1010.0 |
| 20260505214004 | 11 | 26 | 9.7 | 16.1 | 0.00 | 0.00 | 0.00 | 85 | 1010.0 |
| 20260505213004 | 11 | 18 | 8.0 | 19.3 | 0.00 | 0.00 | 0.00 | 84 | 1010.0 |
| 20260505212503 | 11 | 20 | 8.0 | 20.9 | 0.00 | 0.00 | 0.00 | 85 | 1010.0 |
| 20260505211503 | 12 | 35 | 8.0 | 16.1 | 0.00 | 0.00 | 0.00 | 84 | 1010.0 |
| 20260505210504 | 12 | 36 | 4.8 | 19.3 | 0.00 | 0.00 | 0.00 | 83 | 1010.0 |
| 20260505210004 | 12 | 28 | 11.3 | 19.3 | 0.00 | 0.00 | 0.00 | 83 | 1010.1 |
| 20260505205504 | 12 | 19 | 8.0 | 16.1 | 0.00 | 0.00 | 0.00 | 83 | 1010.1 |
| 20260505205005 | 12 | 27 | 6.4 | 19.3 | 0.00 | 0.00 | 0.00 | 83 | 1010.1 |
| 20260505204505 | 12 | 25 | 8.0 | 19.3 | 0.00 | 0.00 | 0.00 | 83 | 1010.0 |
| 20260505204003 | 12 | 28 | 8.0 | 16.1 | 0.00 | 0.00 | 0.00 | 83 | 1010.0 |
| 20260505203005 | 12 | 32 | 9.7 | 20.9 | 0.00 | 0.00 | 0.00 | 83 | 1010.0 |
| 20260505202504 | 12 | 17 | 8.0 | 19.3 | 0.00 | 0.00 | 0.00 | 83 | 1009.9 |
| 20260505202005 | 12 | 22 | 8.0 | 19.3 | 0.00 | 0.00 | 0.00 | 83 | 1010.0 |
| 20260505201504 | 12 | 30 | 9.7 | 19.3 | 0.00 | 0.00 | 0.00 | 83 | 1009.8 |
| 20260505201003 | 12 | 30 | 8.0 | 14.5 | 0.00 | 0.00 | 0.00 | 83 | 1009.7 |
| 20260505200504 | 12 | 29 | 9.7 | 16.1 | 0.00 | 0.00 | 0.00 | 83 | 1009.7 |
| 20260505195504 | 12 | 25 | 6.4 | 16.1 | 0.00 | 0.00 | 0.00 | 83 | 1009.7 |
| 20260505195004 | 12 | 27 | 9.7 | 14.5 | 0.00 | 0.00 | 0.00 | 83 | 1009.7 |
| 20260505194504 | 12 | 23 | 8.0 | 20.9 | 0.00 | 0.00 | 0.00 | 83 | 1009.6 |
| 20260505194004 | 12 | 21 | 8.0 | 14.5 | 0.00 | 0.00 | 0.00 | 83 | 1009.6 |
| 20260505193504 | 12 | 25 | 4.8 | 12.9 | 0.00 | 0.00 | 0.00 | 83 | 1009.6 |
| 20260505192504 | 13 | 13 | 4.8 | 14.5 | 0.00 | 0.00 | 0.00 | 83 | 1009.5 |
| 20260505192004 | 13 | 28 | 4.8 | 16.1 | 0.00 | 0.00 | 0.00 | 84 | 1009.4 |
| 20260505191504 | 13 | 24 | 6.4 | 19.3 | 0.00 | 0.00 | 0.00 | 83 | 1009.4 |
| 20260505191004 | 13 | 24 | 4.8 | 12.9 | 0.00 | 0.00 | 0.00 | 83 | 1009.4 |
| 20260505190504 | 13 | 358 | 6.4 | 16.1 | 0.00 | 0.00 | 0.00 | 83 | 1009.3 |
| 20260505190004 | 13 | 20 | 8.0 | 14.5 | 0.00 | 0.00 | 0.00 | 83 | 1009.2 |
| 20260505185504 | 13 | 14 | 4.8 | 12.9 | 0.00 | 0.00 | 0.00 | 83 | 1009.2 |